Weather History for Monroe, MI

Change the Weather History Date:

Tuesday, October 2, 2012

  Actual Average Record
Temperature  
Mean Temperature 60 °F -  
Max Temperature 66 °F 69 °F 87 °F (1982)
Min Temperature 53 °F 48 °F 29 °F (1974)
Degree Days  
Heating Degree Days 6    
Growing Degree Days 10 (Base 50)    
Moisture  
Dew Point 55 °F    
Average Humidity 87    
Maximum Humidity 100    
Minimum Humidity 73    
Precipitation  
Precipitation 0.00 in - - ()
Sea Level Pressure  
Sea Level Pressure 29.84 in    
Wind  
Wind Speed 4 mph (NE)    
Max Wind Speed 12 mph    
Max Gust Speed 17 mph    
Visibility 9 miles    
Events Rain    
Averages and records for this station are not official NWS values.
T = Trace of Precipitation, MM = Missing Value Source: NWS Daily Summary

Daily Weather History Graph

Daily Weather History Graph

Search for Another Location

Airport:

Trip Planner

Search our weather history database for the weather conditions in past years. The results will help you decide how hot, cold, wet, or windy it might be!

Date:

Astronomy

Oct. 02, 2012 Rise Set
Actual Time 7:32 AM EDT 7:12 PM EDT
Civil Twilight 7:04 AM EDT 7:40 PM EDT
Nautical Twilight 6:32 AM EDT 8:12 PM EDT
Astronomical Twilight 5:59 AM EDT 8:45 PM EDT
Moon 8:21 PM EDT (10/2) 10:01 AM EDT (10/2)
Length of Visible Light 12h 36m
Length of Day
11h 40m
Waning Gibbous, 94% of the Moon is Illuminated
Oct 2
Waning Gibbous
Oct 8
Last Quarter
Oct 15
New
Oct 21
First Quarter
Oct 29
Full

Hourly Weather History & Observations

Time (EDT) Temp. Dew Point Humidity Pressure Visibility Wind Dir Wind Speed Gust Speed Precip Events Conditions
12:12 AM 53.6 °F 48.2 °F 82% 29.84 in 10.0 mi Calm Calm - N/A Rain Light Rain
12:33 AM 53.6 °F 48.2 °F 82% 29.83 in 10.0 mi NNE 3.5 mph - N/A Rain Light Rain
12:53 AM 53.6 °F 48.2 °F 82% 29.82 in 10.0 mi NE 3.5 mph - N/A Rain Light Rain
1:13 AM 53.6 °F 48.2 °F 82% 29.81 in 10.0 mi NE 6.9 mph - N/A Rain Light Rain
1:33 AM 53.6 °F 50.0 °F 88% 29.80 in 10.0 mi NE 5.8 mph - N/A Rain Light Rain
1:53 AM 53.6 °F 50.0 °F 88% 29.82 in 10.0 mi NE 3.5 mph - N/A Rain Light Rain
2:13 AM 53.6 °F 51.8 °F 94% 29.82 in 10.0 mi Calm Calm - N/A   Overcast
3:13 AM 53.6 °F 51.8 °F 94% 29.80 in 10.0 mi ENE 4.6 mph - N/A   Overcast
3:34 AM 55.4 °F 51.8 °F 88% 29.80 in 10.0 mi ENE 5.8 mph - N/A   Overcast
3:54 AM 55.4 °F 51.8 °F 88% 29.80 in 10.0 mi Calm Calm - N/A Rain Light Rain
4:14 AM 55.4 °F 51.8 °F 88% 29.80 in 10.0 mi East 6.9 mph - N/A Rain Rain
4:34 AM 53.6 °F 51.8 °F 94% 29.79 in 7.0 mi Calm Calm - N/A Rain Rain
4:54 AM 53.6 °F 51.8 °F 94% 29.80 in 7.0 mi Calm Calm - N/A Rain Light Rain
5:14 AM 53.6 °F 51.8 °F 94% 29.81 in 10.0 mi Calm Calm - N/A Rain Light Rain
5:34 AM 53.6 °F 53.6 °F 100% 29.81 in 7.0 mi Calm Calm - N/A Rain Rain
5:54 AM 53.6 °F 53.6 °F 100% 29.81 in 10.0 mi NE 3.5 mph - N/A   Drizzle
6:34 AM 53.6 °F 51.8 °F 94% 29.82 in 10.0 mi NNE 3.5 mph - N/A Rain Rain
6:54 AM 53.6 °F 51.8 °F 94% 29.83 in 7.0 mi North 4.6 mph - N/A Rain Light Rain
7:15 AM 53.6 °F 53.6 °F 100% 29.83 in 5.0 mi North 5.8 mph - N/A Rain Light Rain
7:35 AM 53.6 °F 53.6 °F 100% 29.83 in 10.0 mi NNE 5.8 mph - N/A   Drizzle
7:55 AM 53.6 °F 51.8 °F 94% 29.84 in 10.0 mi NNE 5.8 mph - N/A   Drizzle
8:15 AM 53.6 °F 51.8 °F 94% 29.85 in 10.0 mi NNE 4.6 mph - N/A   Light Drizzle
8:35 AM 55.4 °F 53.6 °F 94% 29.84 in 10.0 mi NNE 4.6 mph - N/A   Overcast
8:55 AM 55.4 °F 53.6 °F 94% 29.84 in 10.0 mi NE 5.8 mph - N/A   Light Drizzle
9:15 AM 55.4 °F 53.6 °F 94% 29.84 in 10.0 mi NNE 4.6 mph - N/A   Overcast
9:35 AM 57.2 °F 53.6 °F 88% 29.84 in 10.0 mi NNE 6.9 mph - N/A   Overcast
9:56 AM 57.2 °F 53.6 °F 88% 29.84 in 10.0 mi NE 5.8 mph - N/A   Overcast
10:16 AM 57.2 °F 53.6 °F 88% 29.85 in 10.0 mi NE 5.8 mph - N/A   Overcast
10:31 AM 57.2 °F 53.6 °F 88% 29.85 in 10.0 mi NE 3.5 mph - N/A   Overcast
10:51 AM 59.0 °F 53.6 °F 82% 29.85 in 10.0 mi NE 6.9 mph - N/A   Overcast
11:11 AM 59.0 °F 51.8 °F 77% 29.85 in 10.0 mi NE 8.1 mph - N/A   Overcast
11:31 AM 59.0 °F 53.6 °F 82% 29.85 in 10.0 mi NE 6.9 mph - N/A   Overcast
11:51 AM 60.8 °F 53.6 °F 77% 29.85 in 10.0 mi ENE 6.9 mph - N/A   Overcast
12:11 PM 60.8 °F 55.4 °F 82% 29.84 in 10.0 mi NE 5.8 mph - N/A   Overcast
12:31 PM 62.6 °F 55.4 °F 77% 29.84 in 10.0 mi ENE 9.2 mph 16.1 mph N/A   Overcast
12:51 PM 62.6 °F 55.4 °F 77% 29.84 in 10.0 mi ENE 10.4 mph 16.1 mph N/A   Overcast
1:12 PM 64.4 °F 55.4 °F 73% 29.84 in 10.0 mi ENE 11.5 mph 17.3 mph N/A   Overcast
1:32 PM 64.4 °F 55.4 °F 73% 29.84 in 10.0 mi ENE 10.4 mph 16.1 mph N/A   Overcast
1:52 PM 64.4 °F 55.4 °F 73% 29.84 in 10.0 mi East 8.1 mph - N/A   Overcast
2:12 PM 64.4 °F 57.2 °F 77% 29.83 in 10.0 mi ENE 5.8 mph - N/A   Overcast
2:32 PM 64.4 °F 57.2 °F 77% 29.83 in 10.0 mi ENE 5.8 mph - N/A   Overcast
2:52 PM 66.2 °F 57.2 °F 73% 29.83 in 10.0 mi ENE 6.9 mph - N/A   Overcast
3:12 PM 66.2 °F 57.2 °F 73% 29.82 in 10.0 mi East 8.1 mph - N/A   Overcast
3:32 PM 66.2 °F 57.2 °F 73% 29.82 in 10.0 mi ENE 6.9 mph - N/A   Mostly Cloudy
4:12 PM 66.2 °F 57.2 °F 73% 29.82 in 10.0 mi East 9.2 mph - N/A   Mostly Cloudy
4:33 PM 66.2 °F 57.2 °F 73% 29.82 in 10.0 mi ESE 5.8 mph - N/A   Overcast
4:53 PM 66.2 °F 57.2 °F 73% 29.83 in 10.0 mi East 6.9 mph - N/A   Overcast
5:13 PM 64.4 °F 57.2 °F 77% 29.83 in 10.0 mi East 8.1 mph - N/A   Overcast
5:33 PM 64.4 °F 57.2 °F 77% 29.83 in 10.0 mi East 9.2 mph - N/A   Overcast
5:53 PM 64.4 °F 59.0 °F 83% 29.83 in 10.0 mi Calm Calm - N/A   Overcast
6:13 PM 64.4 °F 59.0 °F 83% 29.84 in 10.0 mi East 4.6 mph - N/A   Overcast
6:33 PM 64.4 °F 59.0 °F 83% 29.84 in 10.0 mi Calm Calm - N/A   Overcast
6:53 PM 64.4 °F 57.2 °F 77% 29.85 in 10.0 mi ENE 4.6 mph - N/A   Overcast
7:14 PM 62.6 °F 59.0 °F 88% 29.86 in 10.0 mi SSE 3.5 mph - N/A   Overcast
7:34 PM 62.6 °F 59.0 °F 88% 29.86 in 10.0 mi ESE 4.6 mph - N/A   Overcast
7:54 PM 62.6 °F 59.0 °F 88% 29.87 in 10.0 mi East 4.6 mph - N/A   Overcast
8:14 PM 62.6 °F 59.0 °F 88% 29.87 in 10.0 mi ESE 3.5 mph - N/A   Overcast
8:34 PM 62.6 °F 60.8 °F 94% 29.88 in 5.0 mi East 3.5 mph - N/A Rain Rain
8:54 PM 60.8 °F 60.8 °F 100% 29.88 in 4.0 mi Calm Calm - N/A   Light Drizzle
9:14 PM 60.8 °F 60.8 °F 100% 29.88 in 4.0 mi North 3.5 mph - N/A   Light Drizzle
9:34 PM 60.8 °F 60.8 °F 100% 29.88 in 5.0 mi North 3.5 mph - N/A   Overcast
10:15 PM 60.8 °F 60.8 °F 100% 29.89 in 3.0 mi NNE 5.8 mph - N/A Rain Light Rain
10:35 PM 60.8 °F 59.0 °F 94% 29.89 in 5.0 mi Calm Calm - N/A   Overcast
10:55 PM 60.8 °F 59.0 °F 94% 29.89 in 5.0 mi Calm Calm - N/A   Overcast
11:15 PM 60.8 °F 59.0 °F 94% 29.90 in 5.0 mi Calm Calm - N/A   Overcast
11:35 PM 60.8 °F 59.0 °F 94% 29.90 in 5.0 mi Calm Calm - N/A   Overcast
11:55 PM 60.8 °F 57.2 °F 88% 29.89 in 5.0 mi Calm Calm - N/A   Overcast